TimeEST,TemperatureF,Dew PointF,Humidity,Sea Level PressureIn,VisibilityMPH,Wind Direction,Wind SpeedMPH,Gust SpeedMPH,PrecipitationIn,Events,Conditions,WindDirDegrees,DateUTC
12:22 AM,35.6,33.8,93,30.18,10.0,North,5.8,-,N/A,,Mostly Cloudy,360,2013-01-18 05:22:00
12:31 AM,35.6,33.8,93,30.18,10.0,North,8.1,-,N/A,,Mostly Cloudy,360,2013-01-18 05:31:00
12:53 AM,36.0,34.0,93,30.25,10.0,North,6.9,-,N/A,,Mostly Cloudy,360,2013-01-18 05:53:00
1:53 AM,35.1,34.0,96,30.28,10.0,NNW,6.9,-,N/A,,Clear,340,2013-01-18 06:53:00
2:53 AM,35.1,33.1,92,30.31,10.0,Calm,Calm,-,N/A,,Clear,0,2013-01-18 07:53:00
3:53 AM,34.0,33.1,96,30.32,10.0,NNW,4.6,-,N/A,,Clear,330,2013-01-18 08:53:00
4:53 AM,33.1,30.9,92,30.34,10.0,NW,3.5,-,N/A,,Clear,310,2013-01-18 09:53:00
5:53 AM,34.0,28.9,82,30.35,10.0,NNW,4.6,-,N/A,,Clear,340,2013-01-18 10:53:00
6:53 AM,32.0,28.0,85,30.39,10.0,NNW,4.6,-,N/A,,Clear,340,2013-01-18 11:53:00
7:53 AM,33.1,28.0,82,30.43,10.0,North,4.6,-,N/A,,Clear,350,2013-01-18 12:53:00
8:53 AM,36.0,28.9,76,30.48,10.0,NNE,5.8,-,N/A,,Clear,20,2013-01-18 13:53:00
9:53 AM,39.0,28.9,67,30.53,10.0,NNE,6.9,-,N/A,,Clear,20,2013-01-18 14:53:00
10:53 AM,43.0,28.9,58,30.54,10.0,NNE,8.1,-,N/A,,Clear,20,2013-01-18 15:53:00
11:53 AM,45.0,26.1,48,30.53,10.0,North,9.2,-,N/A,,Clear,10,2013-01-18 16:53:00
12:53 PM,46.9,23.0,39,30.51,10.0,NNE,12.7,-,N/A,,Clear,20,2013-01-18 17:53:00
1:53 PM,46.9,21.9,37,30.51,10.0,NE,13.8,19.6,N/A,,Clear,40,2013-01-18 18:53:00
2:53 PM,48.0,21.9,36,30.51,10.0,NNE,9.2,-,N/A,,Clear,30,2013-01-18 19:53:00
3:53 PM,48.0,21.9,36,30.52,10.0,NE,5.8,-,N/A,,Clear,40,2013-01-18 20:53:00
4:53 PM,46.0,23.0,40,30.53,10.0,NE,5.8,-,N/A,,Clear,50,2013-01-18 21:53:00
5:53 PM,42.1,25.0,51,30.54,10.0,Variable,3.5,-,N/A,,Clear,0,2013-01-18 22:53:00
6:53 PM,37.9,28.9,70,30.56,10.0,Calm,Calm,-,N/A,,Clear,0,2013-01-18 23:53:00
7:53 PM,36.0,28.0,73,30.57,10.0,East,3.5,-,N/A,,Clear,80,2013-01-19 00:53:00
8:53 PM,37.0,24.1,59,30.57,10.0,East,3.5,-,N/A,,Clear,100,2013-01-19 01:53:00
9:53 PM,35.1,23.0,61,30.57,10.0,Calm,Calm,-,N/A,,Clear,0,2013-01-19 02:53:00
10:53 PM,32.0,27.0,82,30.55,10.0,Calm,Calm,-,N/A,,Clear,0,2013-01-19 03:53:00
11:53 PM,33.1,24.1,70,30.53,10.0,Calm,Calm,-,N/A,,Clear,0,2013-01-19 04:53:00